Hourly Weather Roundup
Issued by NWS Central Illinois

Home | Current Version | Previous Version | Text Only | Print | Product List | Glossary On
Versions: 1 2 3 4 5 6 7 8 9 10 11 12 13 14 15 16 17 18 19 20 21 22 23 24 25 26 27 28 29 30 31 32 33 34 35 36 37 38 39 40 41 42 43 44 45 46 47 48 49 50
000
NZUS43 KILX 300910
HWRILX

AREA WEATHER ROUNDUP
NATIONAL WEATHER SERVICE, LINCOLN IL
400 AM CDT TUE JUN 30 2015


CITY           SKY/WX    TMP DP  RH WIND       PRES   REMARKS
BLOOMINGTON    MOCLDY    67  67 100 W5        29.83S
CHAMPAIGN      MOCLDY    67  65  93 SW7       29.82F
DANVILLE       RAIN      61  60  98 SW5       29.78F
DECATUR        PTCLDY    68  65  90 W7        29.83S
EFFINGHAM      CLEAR     66  63  89 S5        29.86F
FLORA          PTCLDY    67  65  92 SW6       29.86S
GALESBURG      PTCLDY    63  62  97 CALM      29.83S FOG
JACKSONVILLE   PTCLDY    69  66  92 W3        29.85S
LACON          MOCLDY    64  61  91 CALM      29.80S
LAWRENCEVILLE  PTCLDY    64  63  96 SW5       29.85F
LITCHFIELD     CLEAR     66  64  91 SW5       29.86S
$$


CITY           SKY/WX    TMP DP  RH WIND       PRES   REMARKS
LINCOLN        MOCLDY    67  64  91 CALM      29.82F
MACOMB         PTCLDY    65  65  99 W6        29.85S FOG
MATTOON        PTCLDY    68  64  87 W6        29.83S
MT CARMEL AP   PTCLDY    68  63  83 SW3       29.86R
OLNEY-NOBLE AP PTCLDY    66  64  94 CALM      29.86F
PARIS          MOCLDY    64  62  95 SE3       29.84F
PEORIA         MOCLDY    67  62  84 W3        29.82R
PONTIAC        LGT RAIN  66  65  97 W3        29.80F
RANTOUL        MOCLDY    66  65  96 SW5       29.82R FOG
ROBINSON       CLEAR     65  64  96 SW5       29.85S
SPRINGFIELD    CLEAR     69  65  86 W7        29.84S
TAYLORVILLE    CLEAR     66  64  94 W6        29.85R
$$

...REGIONAL REPORTS...


CITY           SKY/WX    TMP DP  RH WIND       PRES   REMARKS
CHICAGO O`HARE CLOUDY    65  63  93 W7        29.76S
KANKAKEE       CLOUDY    64  63  95 CALM      29.79F
MOLINE         CLEAR     62  60  93 CALM      29.80F
MOUNT VERNON   CLEAR     66  61  82 CALM      29.88R
PITTSFIELD     CLEAR     68  64  89 W5        29.87S
QUINCY         CLEAR     66  64  93 SW6       29.86S
ROCKFORD       PTCLDY    61  58  90 W5        29.81S
$$


CITY           SKY/WX    TMP DP  RH WIND       PRES   REMARKS
BURLINGTON     CLEAR     65  65 100 CALM      29.83S
CEDAR RAPIDS   CLEAR     60  60 100 SW5       29.81F
DES MOINES     CLOUDY    68  62  81 W6        29.86S
KIRKSVILLE     CLEAR     66  63  90 SW5       29.89S
OTTUMWA        CLEAR     64  64 100 SW5       29.83F
ST LOUIS       CLEAR     72  66  81 CALM      29.87S
$$


CITY           SKY/WX    TMP DP  RH WIND       PRES   REMARKS
TERRE HAUTE    MOCLDY    66  62  87 CALM      29.84R THUNDER
EVANSVILLE     CLOUDY    70  65  84 W6        29.87R
INDIANAPOLIS   MOCLDY    65  62  90 SW7       29.80F
LAFAYETTE      PTCLDY    61  61 100 SW3       29.78F FOG
MADISON        CLEAR     60  58  92 NW3       29.78F
MILWAUKEE      MOCLDY    64  60  87 NW6       29.76S
$$




USA.gov is the U.S. government's official web portal to all federal, state and local government web resources and services.